User: anonymous   Login
Location: Unspecified
(0.0000°N, 0.0000°E)
Time: 20:24:55
(UTC+00:00)
Language:

NNS O-27 - Orbit

View from above orbital plane
View from above orbital plane
View from above satellite
View from above satellite

Ground track
Ground track

The orbit data is extracted from the following two-line orbital elements,

1 18361U 87080A   17207.27999300 +.00000037 +00000-0 +48757-4 0  9993
2 18361 090.3333 336.7973 0104064 349.7670 010.1358 13.44434494464171
Epoch (UTC): 26 July 2017 06:43:11
Eccentricity: 0.0104064
inclination: 90.3333°
perigee height: 1015 km
apogee height: 1170 km
right ascension of ascending node: 336.7973°
argument of perigee: 349.7670°
revolutions per day: 13.44434494
mean anomaly at epoch: 10.1358°
orbit number at epoch: 46417

The dashed part of the orbit path shows where the satellite is in the earth's shadow,  

DLR